User: anonymous   Login
Location: Unspecified
(0.0000°N, 0.0000°E)
Time: 05:22:21
(UTC+00:00)
Language:

RAX-2 - Orbit

View from above orbital plane
View from above orbital plane
View from above satellite
View from above satellite

Ground track
Ground track

The orbit data is extracted from the following two-line orbital elements,

1 37853U 11061D   23272.58447933  .00032472  00000-0  10549-2 0  9993
2 37853 101.7088 274.0978 0114949 113.3315 248.0052 15.25638225651760
Epoch (UTC): 29 September 2023 14:01:39
Eccentricity: 0.0114949
inclination: 101.7088°
perigee height: 410 km
apogee height: 568 km
right ascension of ascending node: 274.0978°
argument of perigee: 113.3315°
revolutions per day: 15.25638225
mean anomaly at epoch: 248.0052°
orbit number at epoch: 65176

The dashed part of the orbit path shows where the satellite is in the earth's shadow,  

DLR